GPS BIII-5 (PRN 11)

Last updated on Wed Jun 24 2026 00:03:27 GMT+0000 (Coordinated Universal Time)

1 48859U 21054A 26172.74905854 -.00000098 00000+0 00000+0 0 9992 2 48859 55.1721 332.2753 0025387 228.5068 313.8862 2.00568823 36844
UTC large
Height (km)
Speed (km/s)
/
Latitude / Longitude
Inclination (degrees)
Orbital Period (minutes)
Azimuth
Elevation
Range (km)
Doppler Factor

Next 0 passes for location: London (51.5072 / 0.1276)

No passes found over London.
GPS BIII-5 (PRN 11)